Retour au catalogue

DELTA 1 DEB

LostLEO
NORAD 42086·DEBRIS·🇺🇸 United States

Lancé Dec 15, 1968 depuis Vandenberg Space Force Base

Loading…

Prochains Passages (prochaines 24 heures)

TLE

PériméSource: Space-Track

Époque: Aug 1, 2026, 23:24 UTC

1 42086U 68114N   26213.97561172  .00000130  00000-0  19113-2 0  9993
2 42086 102.1342 132.4875 0350455  13.9843 347.0609 11.93578991218558

Suivez DELTA 1 DEB en temps réel avec AllMySat

Download on the App Store